Flag for Switzerland Weather past 2 weeks in Liestal, Basel-Land, Switzerland

Now
61 °F

Sunny.


Feels Like: 61 °F
Forecast: 59 / 92 °F
Wind: 1 mph from West

Location: Bale-Mulhouse

Current Time: Jun 30, 2015 at 7:45:40 AM

Latest Report: Jun 30, 2015 at 7:00 AM


Visibility: 10 mi

Pressure: 30.15 "Hg

Humidity: 94%

Dew point: 59 °F

Location of LiestalLocation

Historic Weather in Liestal — Graph

°F

Liestal temperature yesterday

Maximum temperature yesterday: 86 °F (at 5:00 PM)
Minimum temperature yesterday: 54 °F (at 5:30 AM)
Average temperature yesterday: 71 °F

Past Weeks' High & Low Weather Summary

 TemperatureHumidityPressure
High86 °F (Jun 29, 5:00 PM)100% (Jun 15, 6:00 AM)30.21 "Hg (Jun 15, 6:00 AM)
Low45 °F (Jun 24, 4:30 AM)26% (Jun 26, 3:00 PM)29.74 "Hg (Jun 22, 9:00 PM)
Average63 °F74%30.10 "Hg
* Reported Jun 15 6:00 AM — Jun 30 6:30 AM, Liestal, Weather by CustomWeather, © 2015

Note: Actual official high and low records may vary slightly from our data, if they occured in-between our weather recording intervals... More about our weather records

Advertising

Liestal weather history for previous 24 hours

 ConditionsComfort  
Time TempWeatherWind HumidityBarometerVisibility
6:30 AM
Tue, Jun 30
57 °FClear.2 mph100%30.15 "Hg10 mi
6:00 AM57 °FClear.2 mph94%30.15 "Hg10 mi
5:30 AM57 °FClear.No wind94%30.15 "Hg10 mi
5:00 AM59 °FClear.No wind88%30.15 "Hg10 mi
4:30 AM59 °FClear.2 mph94%30.15 "Hg10 mi
4:00 AM59 °FClear.2 mph94%30.15 "Hg10 mi
3:30 AM59 °FClear.3 mph94%30.15 "Hg10 mi
3:00 AM59 °FClear.2 mph94%30.15 "Hg10 mi
2:30 AM61 °FClear.3 mph94%30.15 "Hg10 mi
2:00 AM61 °FClear.No wind94%30.15 "Hg10 mi
1:30 AM63 °FClear.1 mph88%30.15 "Hg10 mi
1:00 AM63 °FClear.1 mph88%30.15 "Hg10 mi
12:30 AM64 °FClear.2 mph83%30.15 "Hg10 mi
11:30 PM
Mon, Jun 29
70 °FClear.3 mph69%30.15 "Hg10 mi
11:00 PM68 °FClear.3 mph73%30.15 "Hg10 mi
10:30 PM70 °FSunny.2 mph73%30.15 "Hg10 mi
10:00 PM72 °FSunny.No wind69%30.15 "Hg10 mi
9:30 PM73 °FSunny.1 mph65%30.15 "Hg10 mi
9:00 PM77 °FSunny.2 mph57%30.15 "Hg10 mi
8:30 PM81 °FSunny.3 mph51%30.15 "Hg10 mi
8:00 PM82 °FSunny.3 mph42%30.15 "Hg10 mi
7:30 PM82 °FSunny.3 mph45%30.12 "Hg10 mi
7:00 PM84 °FSunny.2 mph40%30.12 "Hg10 mi
6:30 PM84 °FSunny.2 mph40%30.12 "Hg10 mi
6:00 PM84 °FScattered clouds.3 mph33%30.12 "HgN/A
5:30 PM86 °FScattered clouds.3 mph33%30.15 "HgN/A
5:00 PM86 °FScattered clouds.2 mph31%30.15 "HgN/A
4:30 PM84 °FPartly sunny.3 mph37%30.15 "HgN/A
4:00 PM84 °FPartly sunny.3 mph35%30.15 "HgN/A
3:30 PM84 °FPartly sunny.2 mph35%30.15 "HgN/A
3:00 PM84 °FPartly sunny.3 mph33%30.15 "HgN/A
2:30 PM84 °FPartly sunny.3 mph31%30.15 "HgN/A
2:00 PM82 °FPartly sunny.2 mph35%30.15 "HgN/A
1:30 PM82 °FPartly sunny.2 mph40%30.18 "HgN/A
1:00 PM81 °FPartly sunny.1 mph45%30.18 "HgN/A
12:30 PM77 °FPartly sunny.2 mph47%30.18 "HgN/A
12:00 PM77 °FPartly sunny.2 mph44%30.18 "HgN/A
11:30 AM75 °FPassing clouds.3 mph50%30.18 "HgN/A
11:00 AM73 °FPassing clouds.5 mph50%30.18 "HgN/A
10:30 AM70 °FPassing clouds.6 mph57%30.18 "HgN/A
10:00 AM68 °FPassing clouds.6 mph64%30.18 "HgN/A
9:30 AM66 °FPassing clouds.6 mph64%30.18 "HgN/A
9:00 AM64 °FSunny.7 mph68%30.18 "Hg10 mi
8:30 AM63 °FSunny.3 mph77%30.18 "Hg10 mi
8:00 AM61 °FSunny.5 mph77%30.18 "Hg10 mi
7:30 AM61 °FSunny.5 mph77%30.18 "Hg10 mi
7:00 AM59 °FPassing clouds.3 mph82%30.15 "HgN/A
Weather by CustomWeather, © 2015

See weather overviewHow to use our weather pages